Overview Statistics Trail Chart Weather Telemetry Raw packets
 

This is the latest recevied weather packets stored in our database for station/object OK1FET-4. If no packets are shown the sender has not sent any weather packets the latest 10 day(s).

<< 111 112 113 114 115 >>
Time Temp. Humidity Pressure Rain* Wind** Luminosity Snow
1787818255 22.78° C 77% 1019.9 hPa - - - -
1787817957 22.22° C 77% 1019.9 hPa - - - -
1787817652 21.67° C 79% 1019.9 hPa - - - -
1787817351 21.11° C 80% 1019.8 hPa - - - -
1787817050 20.56° C 82% 1019.9 hPa - - - -
1787816749 20° C 83% 1019.9 hPa - - - -
1787816448 19.44° C 83% 1020 hPa - - - -
1787816147 19.44° C 82% 1019.9 hPa - - - -
1787815846 19.44° C 83% 1019.8 hPa - - - -
1787815545 19.44° C 84% 1019.7 hPa - - - -
1787815244 18.89° C 84% 1019.7 hPa - - - -
1787814943 18.89° C 84% 1019.8 hPa - - - -
1787814642 18.33° C 84% 1019.7 hPa - - - -
1787814342 18.33° C 84% 1019.6 hPa - - - -
1787814041 18.33° C 84% 1019.8 hPa - - - -
1787813740 18.33° C 85% 1019.9 hPa - - - -
1787813439 17.78° C 85% 1019.9 hPa - - - -
1787813138 17.78° C 85% 1019.9 hPa - - - -
1787812837 17.22° C 87% 1019.9 hPa - - - -
1787812537 16.67° C 88% 1019.9 hPa - - - -
1787812236 16.11° C 89% 1020.1 hPa - - - -
1787811935 15.56° C 86% 1020 hPa - - - -
1787811634 15.56° C 87% 1020 hPa - - - -
1787811334 15° C 88% 1020 hPa - - - -
1787811033 14.44° C 87% 1019.9 hPa - - - -

* Rain since midnight (hover to see other rain measurements)
** Current wind speed in m/s (hover to see current wind gust speed)